Location: Newark
(25.4800°N, 85.7200°E)
Time: 22:54:07
(UTC+00:00)

Explorer 11/Cluster Stage 4 - Pass Details

Date: 27 August 2019
Orbit: 467 x 1260 km, 28.8° (Epoch: 17 September)

Event Time Altitude Azimuth Distance (km) Brightness Sun altitude
Rises 07:21:31 0° 284° (WNW) 4,181 10.5 68.6°
Reaches altitude 10° 07:24:27 10° 284° (WNW) 3,231 10.0 68.1°
Maximum altitude 07:32:46 82° 198° (SSW) 1,236 9.5 66.7°
Drops below altitude 10° 07:40:23 10° 112° (ESE) 2,979 9.5 65.3°
Sets 07:42:59 0° 111° (ESE) 3,842 10.0 64.8°
